Terminal Aerodrome Forecast
Issued by NWS Boston, MA

Home | Current Version | Previous Version | Text Only | Print | Product List | Glossary On
Versions: 1 2 3 4 5 6 7 8 9 10 11 12 13 14 15 16 17 18 19 20 21 22 23 24 25 26 27 28 29 30 31 32 33 34 35 36 37 38 39 40 41 42
000
FTUS41 KBOX 031140
TAFORH
TAF
KORH 031140Z 0312/0412 29017G26KT P6SM OVC100
     FM031500 30012G27KT P6SM SCT040
     FM032000 31012G25KT P6SM BKN040
     FM032300 30010G26KT P6SM SCT045
     FM040000 30010G27KT P6SM SCT200
     FM040500 32009KT P6SM FEW200=

USA.gov is the U.S. government's official web portal to all federal, state and local government web resources and services.